CW8843 Weather Reports


time (UTC)temp
F
wind
direction
speed
knots
gust
knots
rain 1hr
in
rain 24hr
in
rain mn
in
humidity
%
barometer
mb
20260509054653 57 128 8.7 12.2 0.00 0.00 0.00 50 1015.1
20260509053643 58 85 8.7 12.2 0.00 0.00 0.00 49 1015.0
20260509052632 58 96 7.8 12.2 0.00 0.00 0.00 45 1014.8
20260509051625 58 107 7.8 11.3 0.00 0.00 0.00 45 1014.9
20260509050653 60 112 6.1 10.4 0.00 0.00 0.00 44 1014.9
20260509045632 61 92 3.5 10.4 0.00 0.00 0.00 41 1014.9
20260509044641 60 144 7.0 11.3 0.00 0.00 0.00 44 1014.6
20260509043613 60 111 7.8 11.3 0.00 0.00 0.00 44 1014.6
20260509042624 61 128 7.8 12.2 0.00 0.00 0.00 43 1014.5
20260509041614 60 67 7.8 11.3 0.00 0.00 0.00 43 1014.4
20260509040621 60 98 6.1 9.6 0.00 0.00 0.00 43 1014.5
20260509035643 61 117 6.1 8.7 0.00 0.00 0.00 43 1014.6
20260509034614 61 136 6.1 8.7 0.00 0.00 0.00 42 1014.6
20260509033616 62 116 4.3 7.8 0.00 0.00 0.00 40 1014.4
20260509032623 63 104 5.2 9.6 0.00 0.00 0.00 39 1014.2
20260509031614 63 360 5.2 9.6 0.00 0.00 0.00 39 1014.0
20260509030636 64 119 5.2 9.6 0.00 0.00 0.00 39 1013.9
20260509025629 65 360 4.3 8.7 0.00 0.00 0.00 38 1013.7
20260509024635 65 117 4.3 7.8 0.00 0.00 0.00 37 1013.6
20260509023621 66 116 4.3 7.0 0.00 0.00 0.00 36 1013.4
20260509022631 67 360 3.5 5.2 0.00 0.00 0.00 36 1013.2
20260509021616 69 360 2.6 5.2 0.00 0.00 0.00 35 1013.1
20260509020623 71 360 2.6 4.3 0.00 0.00 0.00 32 1013.0
20260509015624 72 360 0.9 2.6 0.00 0.00 0.00 29 1013.0
20260509014617 72 360 0.0 3.5 0.00 0.00 0.00 26 1013.0
20260509013625 73 360 2.6 5.2 0.00 0.00 0.00 26 1012.9
20260509012615 73 360 2.6 8.7 0.00 0.00 0.00 26 1012.9
20260509011645 73 360 4.3 9.6 0.00 0.00 0.00 25 1013.0
20260509010615 74 256 2.6 10.4 0.00 0.00 0.00 24 1013.0
20260509005652 75 360 3.5 8.7 0.00 0.00 0.00 24 1013.0
20260509004618 75 360 2.6 8.7 0.00 0.00 0.00 24 1013.0
20260509003625 76 360 4.3 7.8 0.00 0.00 0.00 22 1013.0
20260509002628 75 360 5.2 8.7 0.00 0.00 0.00 22 1013.2
20260509001616 75 360 3.5 7.8 0.00 0.00 0.00 21 1013.2
20260509000624 75 360 4.3 8.7 0.00 0.00 0.00 21 1013.3
20260508235621 75 248 3.5 7.8 0.00 0.00 0.00 21 1013.4
20260508234629 75 274 4.3 8.7 0.00 0.00 0.00 21 1013.5
20260508233621 75 360 0.9 10.4 0.00 0.00 0.00 21 1013.5
20260508232631 75 281 4.3 10.4 0.00 0.00 0.00 22 1013.5
20260508231617 75 194 2.6 8.7 0.00 0.00 0.00 21 1013.6
20260508230623 75 252 3.5 9.6 0.00 0.00 0.00 22 1013.6
20260508225622 74 255 3.5 6.1 0.00 0.00 0.00 23 1013.7
20260508224650 74 182 4.3 9.6 0.00 0.00 0.00 24 1013.8
20260508223619 74 177 2.6 5.2 0.00 0.00 0.00 24 1014.0
20260508222630 73 304 3.5 9.6 0.00 0.00 0.00 23 1014.3
20260508221625 73 253 4.3 10.4 0.00 0.00 0.00 23 1014.4
20260508220615 73 252 2.6 8.7 0.00 0.00 0.00 24 1014.6
20260508215615 73 251 1.7 8.7 0.00 0.00 0.00 25 1014.6
20260508214623 73 311 5.2 8.7 0.00 0.00 0.00 24 1014.8
20260508213652 73 173 1.7 7.0 0.00 0.00 0.00 24 1014.8
20260508212620 72 261 7.0 11.3 0.00 0.00 0.00 25 1015.2
20260508211628 72 269 4.3 9.6 0.00 0.00 0.00 25 1015.2
20260508210653 72 217 2.6 6.1 0.00 0.00 0.00 25 1015.2
20260508205635 71 266 2.6 12.2 0.00 0.00 0.00 26 1015.4
20260508204622 72 211 2.6 7.0 0.00 0.00 0.00 25 1015.4
20260508203649 71 257 0.9 7.8 0.00 0.00 0.00 28 1015.6
20260508202616 71 313 4.3 9.6 0.00 0.00 0.00 25 1015.7
20260508201625 71 209 2.6 7.8 0.00 0.00 0.00 26 1015.7
20260508200618 71 309 4.3 9.6 0.00 0.00 0.00 26 1015.8
20260508195620 71 232 2.6 9.6 0.00 0.00 0.00 27 1015.8
20260508194630 70 298 4.3 11.3 0.00 0.00 0.00 28 1015.9
20260508193623 70 336 4.3 9.6 0.00 0.00 0.00 27 1015.9
20260508192613 70 230 4.3 9.6 0.00 0.00 0.00 26 1016.0
20260508191623 70 246 7.0 10.4 0.00 0.00 0.00 27 1016.2
20260508190613 70 318 5.2 11.3 0.00 0.00 0.00 26 1016.1
20260508185618 69 248 3.5 8.7 0.00 0.00 0.00 26 1016.2
20260508184626 69 273 4.3 10.4 0.00 0.00 0.00 27 1016.3
20260508183635 69 235 2.6 7.8 0.00 0.00 0.00 26 1016.4
20260508182622 69 186 4.3 7.0 0.00 0.00 0.00 29 1016.4
20260508181634 68 248 2.6 9.6 0.00 0.00 0.00 29 1016.6
20260508180644 68 116 2.6 10.4 0.00 0.00 0.00 29 1016.6
20260508175629 67 265 6.1 10.4 0.00 0.00 0.00 31 1016.8
20260508174639 67 279 3.5 7.8 0.00 0.00 0.00 30 1016.7
20260508173628 67 254 1.7 8.7 0.00 0.00 0.00 31 1016.7
20260508172637 67 294 1.7 6.1 0.00 0.00 0.00 32 1016.8
20260508171627 66 287 1.7 7.8 0.00 0.00 0.00 32 1016.9
20260508170614 66 280 1.7 7.0 0.00 0.00 0.00 32 1016.8
20260508165627 66 278 0.9 7.8 0.00 0.00 0.00 32 1016.8
20260508164615 65 307 2.6 7.0 0.00 0.00 0.00 33 1016.8
20260508163628 65 292 2.6 7.8 0.00 0.00 0.00 32 1016.8
20260508162615 65 274 2.6 5.2 0.00 0.00 0.00 32 1016.8
20260508161642 65 192 1.7 4.3 0.00 0.00 0.00 39 1016.8
20260508160628 64 190 1.7 4.3 0.00 0.00 0.00 39 1016.7
20260508155635 64 241 1.7 3.5 0.00 0.00 0.00 40 1016.7
20260508154621 64 277 2.6 4.3 0.00 0.00 0.00 39 1016.7
20260508153646 64 325 0.9 2.6 0.00 0.00 0.00 35 1016.6
20260508152630 63 360 0.0 4.3 0.00 0.00 0.00 36 1016.6
20260508151638 63 311 0.9 2.6 0.00 0.00 0.00 34 1016.6
20260508150630 62 175 0.9 2.6 0.00 0.00 0.00 39 1016.5
20260508145627 61 360 1.7 4.3 0.00 0.00 0.00 43 1016.5
20260508144612 59 108 2.6 6.1 0.00 0.00 0.00 48 1016.4
20260508143620 58 360 5.2 7.0 0.00 0.00 0.00 51 1016.4
20260508142612 57 109 4.3 7.0 0.00 0.00 0.00 52 1016.4
20260508141618 55 72 4.3 8.7 0.00 0.00 0.00 53 1016.3
20260508140623 54 78 5.2 7.8 0.00 0.00 0.00 55 1016.2
20260508135618 52 89 6.1 8.7 0.00 0.00 0.00 58 1016.2
20260508134648 51 144 6.1 9.6 0.00 0.00 0.00 59 1016.2
20260508133622 51 137 6.1 11.3 0.00 0.00 0.00 61 1015.9
20260508132631 50 101 6.1 13.0 0.00 0.00 0.00 61 1015.8
20260508131620 50 84 7.8 11.3 0.00 0.00 0.00 62 1015.6
20260508130631 49 130 8.7 13.9 0.00 0.00 0.00 62 1015.4
20260508125629 49 148 7.8 13.0 0.00 0.00 0.00 61 1015.2
20260508124617 49 141 7.8 12.2 0.00 0.00 0.00 61 1015.1
20260508123643 50 116 8.7 13.0 0.00 0.00 0.00 59 1015.2
20260508122615 50 77 7.8 11.3 0.00 0.00 0.00 56 1015.1
20260508121626 50 155 7.0 10.4 0.00 0.00 0.00 56 1015.2
20260508120617 50 91 6.1 11.3 0.00 0.00 0.00 58 1015.1
20260508115637 50 131 7.8 12.2 0.00 0.00 0.00 61 1014.9
20260508114624 50 134 8.7 13.9 0.00 0.00 0.00 61 1014.8
20260508113636 51 118 8.7 12.2 0.00 0.00 0.00 55 1014.7
20260508112625 50 67 8.7 13.9 0.00 0.00 0.00 56 1014.7
20260508111615 50 102 8.7 14.8 0.00 0.00 0.00 59 1014.5
20260508110622 50 134 8.7 15.6 0.00 0.00 0.00 59 1014.5
20260508105622 50 117 8.7 14.8 0.00 0.00 0.00 61 1014.4
20260508104628 50 118 8.7 13.9 0.00 0.00 0.00 61 1014.4
20260508103616 50 90 7.8 13.0 0.00 0.00 0.00 62 1014.4
20260508102625 50 90 8.7 13.0 0.00 0.00 0.00 61 1014.4
20260508101636 50 115 7.8 14.8 0.00 0.00 0.00 63 1014.3
20260508100621 50 127 8.7 13.9 0.00 0.00 0.00 64 1014.3
20260508095624 50 100 7.8 13.0 0.00 0.00 0.00 63 1014.3
20260508094614 50 84 7.8 12.2 0.00 0.00 0.00 62 1014.2
20260508093628 50 144 7.8 13.9 0.00 0.00 0.00 61 1014.3
20260508092616 50 146 8.7 12.2 0.00 0.00 0.00 60 1014.3
20260508091625 51 78 7.8 14.8 0.00 0.00 0.00 58 1014.4
20260508090614 51 127 8.7 13.9 0.00 0.00 0.00 58 1014.4
20260508085636 52 139 8.7 15.6 0.00 0.00 0.00 52 1014.5
20260508084643 52 100 8.7 13.9 0.00 0.00 0.00 52 1014.4
20260508083631 52 94 9.6 14.8 0.00 0.00 0.00 55 1014.4
20260508082618 52 115 8.7 16.5 0.00 0.00 0.00 57 1014.5
20260508081625 52 120 9.6 18.2 0.00 0.00 0.00 55 1014.5
20260508080619 53 158 10.4 15.6 0.00 0.00 0.00 53 1014.5
20260508075617 53 121 11.3 15.6 0.00 0.00 0.00 51 1014.6
20260508074624 53 155 9.6 14.8 0.00 0.00 0.00 53 1014.5
20260508073615 53 126 8.7 16.5 0.00 0.00 0.00 54 1014.6
20260508072649 54 134 9.6 15.6 0.00 0.00 0.00 51 1014.4
20260508071615 54 123 8.7 13.9 0.00 0.00 0.00 49 1014.4
20260508070642 54 68 10.4 14.8 0.00 0.00 0.00 51 1014.4
20260508065619 54 124 8.7 14.8 0.00 0.00 0.00 51 1014.4
20260508064612 54 132 9.6 14.8 0.00 0.00 0.00 53 1014.3
20260508063619 55 63 9.6 14.8 0.00 0.00 0.00 52 1014.2
20260508062624 55 128 9.6 14.8 0.00 0.00 0.00 50 1014.2
20260508061652 55 132 8.7 13.0 0.00 0.00 0.00 50 1014.1
20260508060619 55 88 9.6 16.5 0.00 0.00 0.00 51 1014.1
20260508055618 56 97 9.6 13.0 0.00 0.00 0.00 50 1014.1